Location: Ethel Rock
(53.4667°N, 4.5667°W)
Time: 05:22:12
(UTC+00:00)

Cosmos 1300 - Pass Details

Date: 24 October 2020
Orbit: 511 x 513 km, 82.5° (Epoch: 25 November)

Event Time Altitude Azimuth Distance (km) Brightness Sun altitude
Rises 06:06:02 0° 342° (NNW) 2,645 6.0 -9.0°
Reaches altitude 10° 06:08:19 10° 332° (NNW) 1,752 5.0 -8.7°
Maximum altitude 06:11:46 33° 268° (W) 893 3.4 -8.2°
Drops below altitude 10° 06:15:11 10° 204° (SSW) 1,736 5.2 -7.7°
Sets 06:17:26 0° 195° (SSW) 2,617 6.2 -7.4°
